DW4362 Weather Reports


time (UTC)temp
F
wind
direction
speed
knots
gust
knots
rain 1hr
in
rain 24hr
in
rain mn
in
humidity
%
barometer
mb
20260906053210 76 198 0.0 0.0 0.00 0.45 0.00 95 1010.8
20260906050210 76 198 0.0 0.0 0.00 0.45 0.00 95 1011.2
20260906033209 77 198 0.0 0.0 0.00 0.45 0.45 95 1011.6
20260906030210 78 198 0.0 0.0 0.00 0.45 0.45 94 1011.7
20260906023209 79 198 0.0 0.0 0.00 0.45 0.45 93 1011.5
20260906020210 79 198 0.0 0.0 0.00 0.45 0.45 92 1011.2
20260906013209 80 198 0.0 0.0 0.00 0.45 0.45 91 1010.5
20260906010209 81 146 0.0 0.0 0.00 0.45 0.45 89 1010.3
20260906003210 82 237 0.0 0.0 0.00 0.45 0.45 88 1010.3
20260906000212 83 169 0.0 0.0 0.00 0.45 0.45 87 1010.2
20260905233209 84 120 0.0 0.0 0.00 0.45 0.45 85 1010.3
20260905223208 87 123 0.0 0.0 0.00 0.45 0.45 79 1010.7
20260905220209 89 223 0.0 0.0 0.00 0.45 0.45 73 1010.5
20260905210208 88 200 1.7 2.6 0.00 0.45 0.45 76 1010.9
20260905203208 89 184 2.6 2.6 0.00 0.45 0.45 76 1010.8
20260905200208 87 153 0.0 1.7 0.44 0.45 0.45 88 1011.1
20260905193208 81 347 0.0 0.0 0.44 0.45 0.45 95 1011.6
20260905190208 83 147 0.0 0.0 0.00 0.01 0.01 81 1012.4
20260905183208 86 237 1.7 4.3 0.00 0.01 0.01 76 1012.3
20260905180208 92 159 0.0 1.7 0.00 0.01 0.01 67 1012.3
20260905173207 90 96 0.0 1.7 0.00 0.01 0.01 73 1012.7
20260905170207 86 293 0.0 0.0 0.00 0.01 0.01 83 1013.1
20260905163207 89 146 0.0 0.0 0.00 0.01 0.01 73 1013.2
20260905160207 85 153 0.0 0.0 0.00 0.01 0.01 85 1013.6
20260905150207 87 96 1.7 2.6 0.00 0.01 0.01 81 1013.4
20260905143206 85 289 0.0 0.0 0.00 0.01 0.01 88 1013.3
20260905130206 77 162 0.0 1.7 0.00 0.01 0.01 95 1013.0
20260905123206 76 118 0.0 0.0 0.01 0.01 0.01 95 1012.9
20260905120206 75 118 0.0 0.0 0.01 0.01 0.01 95 1012.7
20260905110206 74 118 0.0 0.0 0.00 0.00 0.00 95 1012.3
20260905103206 75 118 0.0 0.0 0.00 0.00 0.00 95 1012.4
20260905100206 75 118 0.0 0.0 0.00 0.00 0.00 95 1012.1
20260905093205 75 118 0.0 0.0 0.00 0.00 0.00 95 1012.2
20260905090206 75 118 0.0 0.0 0.00 0.00 0.00 95 1011.9
20260905083206 75 118 0.0 0.0 0.00 0.00 0.00 94 1012.0
20260905080205 75 118 0.0 0.0 0.00 0.00 0.00 94 1012.0
20260905073205 76 118 0.0 0.0 0.00 0.00 0.00 94 1012.1
20260905070205 76 118 0.0 0.0 0.00 0.00 0.00 94 1011.8
20260905063205 76 118 0.0 0.0 0.00 0.00 0.00 94 1011.9
20260905060205 76 118 0.0 0.0 0.00 0.00 0.00 94 1012.0